Location: Kam�li
(14.6864°N, 3.1482°W)
Time: 02:20:39
(UTC+00:00)

CZ-2C R/B - Pass Details

Date: 29 October 2020
Orbit: 784 x 871 km, 98.2° (Epoch: 02 December)

Event Time Altitude Azimuth Distance (km) Brightness Sun altitude
Exits shadow 18:33:35 16° 87° (E) 1,993 4.0 -12.3°
Maximum altitude 18:34:23 17° 98° (E) 1,960 4.0 -12.5°
Drops below altitude 10° 18:37:39 10° 137° (SE) 2,372 4.7 -13.2°
Sets 18:40:47 0° 157° (SSE) 3,287 5.7 -14.0°
